This is the latest recevied weather packets stored in our database for station/object K4VEB. If no packets are shown the sender has not sent any weather packets the latest 10 day(s).
| Time | Temp. | Humidity | Pressure | Rain* | Wind** | Luminosity | Snow |
|---|---|---|---|---|---|---|---|
| 1788134482 | 78° F | 98% | 762.9 mmHg | 0 in | - | 0 W/m² | - |
| 1788134181 | 78° F | 98% | 762.9 mmHg | 0 in | - | 1 W/m² | - |
| 1788133876 | 78° F | 98% | 762.8 mmHg | 0 in | - | 2 W/m² | - |
| 1788133571 | 78° F | 98% | 762.7 mmHg | 0 in | - | 3 W/m² | - |
| 1788133267 | 78° F | 98% | 762.7 mmHg | 0 in | - | 5 W/m² | - |
| 1788132962 | 78° F | 98% | 762.8 mmHg | 0 in | - | 9 W/m² | - |
| 1788132658 | 78° F | 98% | 762.7 mmHg | 0 in | - | 12 W/m² | - |
| 1788132353 | 78° F | 98% | 762.7 mmHg | 0 in | - | 16 W/m² | - |
| 1788132049 | 78° F | 98% | 762.7 mmHg | 0 in | - | 18 W/m² | - |
| 1788131745 | 78° F | 98% | 762.7 mmHg | 0 in | - | 20 W/m² | - |
| 1788131444 | 78° F | 98% | 762.7 mmHg | 0 in | - | 19 W/m² | - |
| 1788131140 | 77° F | 98% | 762.9 mmHg | 0 in | - | 20 W/m² | - |
| 1788130835 | 77° F | 98% | 762.9 mmHg | 0 in | - | 15 W/m² | - |
| 1788130530 | 77° F | 98% | 762.8 mmHg | 0 in | - | 26 W/m² | - |
| 1788130229 | 77° F | 97% | 762.7 mmHg | 0 in | - | 28 W/m² | - |
| 1788129927 | 77° F | 97% | 762.7 mmHg | 0 in | - | 29 W/m² | - |
| 1788129625 | 77° F | 97% | 762.7 mmHg | 0 in | - | 31 W/m² | - |
| 1788129322 | 77° F | 97% | 762.7 mmHg | 0 in | - | 30 W/m² | - |
| 1788129021 | 77° F | 97% | 762.8 mmHg | 0 in | - | 28 W/m² | - |
| 1788128716 | 77° F | 97% | 762.7 mmHg | 0.07 in | - | 29 W/m² | - |
| 1788128412 | 77° F | 97% | 762.4 mmHg | 0.07 in | - | 34 W/m² | - |
| 1788128108 | 77° F | 97% | 762.6 mmHg | 0.05 in | - | 40 W/m² | - |
| 1788127804 | 77° F | 97% | 762.4 mmHg | 0.05 in | - | 36 W/m² | - |
| 1788127503 | 77° F | 97% | 762.5 mmHg | 0.07 in | - | 33 W/m² | - |
| 1788127201 | 77° F | 97% | 762.3 mmHg | 0.07 in | - | 21 W/m² | - |
* Rain latest hour (hover to see other rain measurements)
** Current wind speed in m/s (hover to see current wind gust speed)